Location: Wawayanda State Park
(41.1833°N, 74.4333°W)
Time: 20:26:19
(UTC-04:00)

Landsat 7 - Visible Passes

Search period start: 30 April 2016 00:00
Search period end: 10 May 2016 00:00
Orbit: 702 x 703 km, 98.2° (Epoch: 30 April)

Date Brightness Start Highest point End Pass type
(mag) Time Alt. Az. Time Alt. Az. Time Alt. Az.
30 Apr 5.9 21:08:54 10° E 21:10:31 12° ENE 21:12:09 10° NE visible
30 Apr 3.8 22:47:44 80° WNW 22:47:44 80° WNW 22:52:21 10° NNW visible
01 May 4.9 21:52:03 27° E 21:52:49 28° ENE 21:56:52 10° N visible
01 May 5.3 23:30:56 29° W 23:30:56 29° W 23:34:39 10° NW visible
02 May 3.7 22:35:14 74° E 22:35:21 75° ENE 22:40:08 10° N visible
03 May 6.4 00:14:07 11° W 00:14:07 11° W 00:14:57 10° WNW visible
03 May 5.2 21:39:32 20° E 21:40:42 22° ENE 21:44:21 10° NNE visible
03 May 4.8 23:18:25 39° W 23:18:25 39° W 23:22:40 10° NNW visible
04 May 3.9 22:22:44 54° E 22:23:11 56° ENE 22:27:51 10° N visible
05 May 6.1 00:01:37 15° W 00:01:37 15° W 00:03:59 10° NW visible
05 May 5.6 21:27:02 15° E 21:28:37 17° ENE 21:31:42 10° NNE visible
05 May 4.2 23:05:55 53° W 23:05:55 53° W 23:10:36 10° NNW visible
06 May 4.3 22:10:14 39° E 22:11:02 42° ENE 22:15:31 10° N visible
06 May 5.8 23:49:07 20° W 23:49:07 20° W 23:52:25 10° NW visible
07 May 5.9 21:14:33 11° E 21:16:34 13° ENE 21:18:49 10° NNE visible
07 May 3.8 22:53:26 70° SW 22:53:41 72° WSW 22:58:27 10° NNW visible
08 May 4.7 21:57:44 29° E 21:58:53 32° ENE 22:03:07 10° N visible
08 May 5.4 23:36:37 26° W 23:36:37 26° W 23:40:37 10° NW visible
09 May 6.1 21:04:12 10° ENE 21:04:32 10° ENE 21:04:53 10° NE visible
09 May 3.6 22:40:56 70° SSE 22:41:29 86° ENE 22:46:16 10° NNW visible
